Regional Weather Roundup
Issued by NWS

Home | Current Version | Previous Version | Graphics & Text | Print | Product List | Glossary On
Versions: 1 2 3 4 5 6 7 8 9 10 11 12 13 14 15 16 17 18 19 20 21 22 23 24 25 26 27 28 29 30 31 32 33 34 35 36 37 38 39 40 41 42 43 44 45 46 47 48 49 50
032
ASUS43 KTOP 220208
RWRKS

WEATHER ROUNDUP FOR KANSAS
NATIONAL WEATHER SERVICE GOODLAND KS
900 PM CDT MON MAY 21 2018

NOTE:  "FAIR" INDICATES FEW OR NO CLOUDS BELOW 12,000 FEET WITH NO
SIGNIFICANT WEATHER AND/OR OBSTRUCTIONS TO VISIBILITY.

KSZ001>006-013>018-027>032-041>047-220300-
NORTHWEST KANSAS

CITY           SKY/WX    TMP DP  RH WIND       PRES   REMARKS
GOODLAND       CLOUDY    69  56  62 S9        29.92R
HAYS           CLOUDY    72  60  66 SE10      29.94R
HILL CITY      CLOUDY    74  59  59 SE10      29.92R
RUSSELL        CLEAR     72  62  71 SE10      29.94R
$$

KSZ061>065-074>080-084>089-220300-
SOUTHWEST KANSAS

CITY           SKY/WX    TMP DP  RH WIND       PRES   REMARKS
DODGE CITY     CLOUDY    74  57  55 S12       29.96R
ELKHART        MOCLDY    75  59  57 S14       29.99R
GARDEN CITY    CLOUDY    73  56  54 S9        29.94R
GREAT BEND     CLOUDY    71  61  70 SE12      29.96R
LIBERAL        CLOUDY    74  56  53 S9        29.97S
PRATT          CLEAR     72  58  60 SE9       29.97R
$$

KSZ066>073-081>083-090>101-220300-
SOUTHEAST KANSAS

CITY           SKY/WX    TMP DP  RH WIND       PRES   REMARKS
CHANUTE        CLEAR     67  64  90 SE3       30.01R
COFFEYVILLE    CLEAR     72  65  78 NE3       29.98S
HUTCHINSON     CLEAR     71  61  70 SE10      29.97R
MEDICINE LODGE   N/A     74  59  59 SE6       29.96R
NEWTON         CLEAR     69  60  73 SE7       30.00R
PARSONS        CLEAR     68  66  93 CALM      30.01S
WICHITA INTL   PTCLDY    72  61  68 SE7       29.98R
WICHITA JABRA  CLEAR     70  60  70 SE3       29.99R
WINFIELD       CLEAR     73  62  68 SE5       29.99S
$$

KSZ007>012-019>026-033>040-048>060-102>105-220300-
NORTHEAST KANSAS

CITY           SKY/WX    TMP DP  RH WIND       PRES   REMARKS
CONCORDIA      CLOUDY    68  58  70 SE5       29.96R
EMPORIA        CLEAR     69  61  75 SE6       29.99R
LAWRENCE       CLEAR     67  62  84 E5        29.99R
MANHATTAN      CLEAR     72  60  66 CALM      29.97R
MARYSVILLE     CLEAR     68  57  68 S6        29.97S
OLATHE IND     CLEAR     69  59  70 SE5       30.01R
OLATHE EXE     CLEAR     67  59  75 CALM      30.01R
SALINA         CLEAR     74  60  61 SE7       29.96R
TOPEKA BILLARD CLEAR     69  62  78 SE5       29.99R
TOPEKA FORBES  CLEAR     69  62  78 SE6       29.99R
$$




USA.gov is the U.S. government's official web portal to all federal, state and local government web resources and services.